QLK2036 YBNA-YSSY

Flight info

Callsign QLK2036
Flight time 1h 8m
Altitude 24000
Route DCT BNA W494 IDNER H98 SANAD H91 IGDAM H652 BOREE BOREE4A
Aircraft DH8D/M-SDE2E3FGRY/H

Departure

Time 2026-05-06 15:19
Airport Ballina Byron Gateway Airport (YBNA)

Arrival

Time 2026-05-06 16:27
Airport Sydney Kingsford Smith International Airport (YSSY)
Time Latitude Longitude Altitude Speed Heading
2026-05-06 15:04 -28.83708 153.55566 26 ft 0 kts 195°
2026-05-06 15:15 -28.83712 153.55557 26 ft 5 kts 273°
2026-05-06 15:15 -28.83656 153.55621 24 ft 16 kts 60°
2026-05-06 15:15 -28.83604 153.55696 22 ft 11 kts
2026-05-06 15:15 -28.83526 153.55670 21 ft 12 kts 341°
2026-05-06 15:16 -28.83445 153.55676 21 ft 12 kts 65°
2026-05-06 15:16 -28.83404 153.55830 21 ft 32 kts 73°
2026-05-06 15:16 -28.83327 153.56142 19 ft 42 kts 72°
2026-05-06 15:16 -28.83250 153.56421 20 ft 32 kts 73°
2026-05-06 15:17 -28.83195 153.56633 22 ft 24 kts 74°
2026-05-06 15:17 -28.83156 153.56795 22 ft 18 kts 73°
2026-05-06 15:17 -28.83120 153.56928 21 ft 16 kts 73°
2026-05-06 15:17 -28.83101 153.56999 20 ft 3 kts 13°
2026-05-06 15:18 -28.83101 153.56978 20 ft 4 kts 248°
2026-05-06 15:18 -28.83147 153.56802 22 ft 59 kts 251°
2026-05-06 15:18 -28.83353 153.56015 21 ft 141 kts 252°
2026-05-06 15:18 -28.83620 153.54808 358 ft 166 kts 255°
2026-05-06 15:19 -28.83747 153.53387 808 ft 192 kts 263°
2026-05-06 15:19 -28.83817 153.51860 1566 ft 197 kts 262°
2026-05-06 15:19 -28.83915 153.50229 1954 ft 219 kts 262°
2026-05-06 15:19 -28.84035 153.48463 2457 ft 227 kts 262°
2026-05-06 15:20 -28.84168 153.46634 3108 ft 232 kts 263°
2026-05-06 15:20 -28.84305 153.44801 3738 ft 234 kts 263°
2026-05-06 15:20 -28.84439 153.42960 4430 ft 235 kts 264°
2026-05-06 15:20 -28.84579 153.41132 5110 ft 237 kts 264°
2026-05-06 15:21 -28.84725 153.39239 5788 ft 239 kts 265°
2026-05-06 15:21 -28.84870 153.37367 6476 ft 239 kts 265°
2026-05-06 15:21 -28.85018 153.35478 7139 ft 242 kts 266°
2026-05-06 15:21 -28.85170 153.33551 7839 ft 242 kts 267°
2026-05-06 15:22 -28.85320 153.31644 8522 ft 242 kts 267°
2026-05-06 15:22 -28.85471 153.29712 9186 ft 244 kts 267°
2026-05-06 15:22 -28.85624 153.27773 9854 ft 245 kts 267°
2026-05-06 15:22 -28.85774 153.25864 10519 ft 245 kts 267°
2026-05-06 15:23 -28.85927 153.23927 11190 ft 245 kts 267°
2026-05-06 15:23 -28.86081 153.21968 11815 ft 246 kts 267°
2026-05-06 15:23 -28.86233 153.20033 12393 ft 247 kts 268°
2026-05-06 15:23 -28.86387 153.18069 12996 ft 247 kts 268°
2026-05-06 15:24 -28.86539 153.16124 13551 ft 248 kts 268°
2026-05-06 15:24 -28.86694 153.14139 14073 ft 249 kts 268°
2026-05-06 15:24 -28.86847 153.12192 14621 ft 248 kts 268°
2026-05-06 15:24 -28.87001 153.10210 15164 ft 248 kts 268°
2026-05-06 15:25 -28.87154 153.08185 15241 ft 265 kts 268°
2026-05-06 15:25 -28.87400 153.06050 15544 ft 274 kts 258°
2026-05-06 15:25 -28.88445 153.04167 15867 ft 290 kts 226°
2026-05-06 15:25 -28.90148 153.02920 16192 ft 299 kts 214°
2026-05-06 15:26 -28.91984 153.01779 16608 ft 299 kts 214°
2026-05-06 15:26 -28.93809 153.00650 16969 ft 300 kts 214°
2026-05-06 15:26 -28.95659 152.99497 17438 ft 304 kts 215°
2026-05-06 15:26 -28.97512 152.98337 18112 ft 304 kts 216°
2026-05-06 15:27 -28.99382 152.97160 18702 ft 306 kts 216°
2026-05-06 15:27 -29.01265 152.95972 19247 ft 310 kts 216°
2026-05-06 15:27 -29.03149 152.94783 19847 ft 313 kts 216°
2026-05-06 15:27 -29.05072 152.93565 20431 ft 315 kts 215°
2026-05-06 15:28 -29.07014 152.92335 20970 ft 319 kts 216°
2026-05-06 15:28 -29.08951 152.91109 21590 ft 320 kts 216°
2026-05-06 15:28 -29.10919 152.89857 22145 ft 323 kts 216°
2026-05-06 15:28 -29.12890 152.88606 22714 ft 325 kts 216°
2026-05-06 15:29 -29.14877 152.87341 23244 ft 328 kts 216°
2026-05-06 15:29 -29.16885 152.86064 23757 ft 332 kts 216°
2026-05-06 15:29 -29.18917 152.84770 24069 ft 333 kts 216°
2026-05-06 15:29 -29.20934 152.83493 24147 ft 333 kts 216°
2026-05-06 15:30 -29.22975 152.82198 24158 ft 334 kts 216°
2026-05-06 15:30 -29.25018 152.80898 24159 ft 335 kts 216°
2026-05-06 15:30 -29.27063 152.79594 24162 ft 336 kts 216°
2026-05-06 15:30 -29.29107 152.78291 24159 ft 337 kts 216°
2026-05-06 15:31 -29.31165 152.76979 24164 ft 337 kts 216°
2026-05-06 15:31 -29.33223 152.75665 24164 ft 338 kts 216°
2026-05-06 15:31 -29.35287 152.74347 24164 ft 338 kts 216°
2026-05-06 15:32 -29.39396 152.71721 24160 ft 339 kts 216°
2026-05-06 15:32 -29.41486 152.70384 24160 ft 339 kts 216°
2026-05-06 15:32 -29.43542 152.69067 24166 ft 339 kts 216°
2026-05-06 15:32 -29.45621 152.67735 24162 ft 339 kts 216°
2026-05-06 15:33 -29.47678 152.66417 24164 ft 339 kts 216°
2026-05-06 15:33 -29.49757 152.65085 24167 ft 339 kts 216°
2026-05-06 15:33 -29.51824 152.63759 24167 ft 339 kts 216°
2026-05-06 15:33 -29.53896 152.62428 24173 ft 340 kts 216°
2026-05-06 15:34 -29.55997 152.61072 24188 ft 352 kts 216°
2026-05-06 15:34 -29.58145 152.59679 24175 ft 360 kts 216°
2026-05-06 15:34 -29.60355 152.58264 24168 ft 357 kts 215°
2026-05-06 15:34 -29.62508 152.56886 24170 ft 355 kts 216°
2026-05-06 15:35 -29.64654 152.55508 24168 ft 353 kts 216°
2026-05-06 15:35 -29.66791 152.54135 24168 ft 351 kts 216°
2026-05-06 15:35 -29.68947 152.52748 24171 ft 350 kts 216°
2026-05-06 15:35 -29.71069 152.51381 24168 ft 349 kts 216°
2026-05-06 15:36 -29.73173 152.50024 24170 ft 348 kts 216°
2026-05-06 15:36 -29.75308 152.48648 24166 ft 347 kts 216°
2026-05-06 15:36 -29.77421 152.47286 24171 ft 346 kts 216°
2026-05-06 15:36 -29.79508 152.45937 24171 ft 346 kts 216°
2026-05-06 15:37 -29.81622 152.44571 24177 ft 345 kts 216°
2026-05-06 15:37 -29.83716 152.43218 24178 ft 345 kts 216°
2026-05-06 15:37 -29.85805 152.41867 24183 ft 345 kts 216°
2026-05-06 15:37 -29.87905 152.40509 24184 ft 345 kts 216°
2026-05-06 15:38 -29.90024 152.39136 24185 ft 345 kts 216°
2026-05-06 15:38 -29.92109 152.37787 24184 ft 345 kts 216°
2026-05-06 15:38 -29.94198 152.36433 24181 ft 345 kts 216°
2026-05-06 15:38 -29.96305 152.35068 24181 ft 345 kts 216°
2026-05-06 15:39 -29.98414 152.33701 24186 ft 344 kts 216°
2026-05-06 15:39 -30.00520 152.32333 24186 ft 344 kts 216°
2026-05-06 15:39 -30.02604 152.30980 24188 ft 344 kts 216°
2026-05-06 15:39 -30.04691 152.29625 24187 ft 344 kts 216°
2026-05-06 15:40 -30.06799 152.28255 24186 ft 344 kts 216°
2026-05-06 15:40 -30.08878 152.26903 24186 ft 344 kts 216°
2026-05-06 15:40 -30.11013 152.25514 24184 ft 344 kts 216°
2026-05-06 15:40 -30.13106 152.24153 24185 ft 344 kts 216°
2026-05-06 15:41 -30.15184 152.22800 24184 ft 344 kts 216°
2026-05-06 15:41 -30.17271 152.21440 24185 ft 344 kts 216°
2026-05-06 15:41 -30.19362 152.20077 24189 ft 343 kts 216°
2026-05-06 15:41 -30.21455 152.18713 24191 ft 343 kts 216°
2026-05-06 15:42 -30.23535 152.17355 24187 ft 343 kts 216°
2026-05-06 15:42 -30.25608 152.16003 24185 ft 343 kts 216°
2026-05-06 15:42 -30.27704 152.14635 24189 ft 343 kts 216°
2026-05-06 15:42 -30.29785 152.13275 24186 ft 343 kts 216°
2026-05-06 15:43 -30.31866 152.11916 24184 ft 343 kts 216°
2026-05-06 15:43 -30.33936 152.10562 24187 ft 342 kts 216°
2026-05-06 15:43 -30.36017 152.09199 24186 ft 342 kts 216°
2026-05-06 15:43 -30.38112 152.07829 24183 ft 342 kts 216°
2026-05-06 15:44 -30.40194 152.06465 24187 ft 342 kts 216°
2026-05-06 15:44 -30.42259 152.05112 24185 ft 341 kts 216°
2026-05-06 15:44 -30.44339 152.03749 24182 ft 341 kts 216°
2026-05-06 15:44 -30.46412 152.02390 24186 ft 341 kts 216°
2026-05-06 15:45 -30.48469 152.01039 24187 ft 341 kts 216°
2026-05-06 15:45 -30.50548 151.99674 24185 ft 341 kts 216°
2026-05-06 15:45 -30.52622 151.98311 24183 ft 341 kts 216°
2026-05-06 15:45 -30.54666 151.96968 24180 ft 341 kts 216°
2026-05-06 15:46 -30.56756 151.95595 24181 ft 341 kts 216°
2026-05-06 15:46 -30.58813 151.94241 24182 ft 341 kts 216°
2026-05-06 15:46 -30.60890 151.92874 24179 ft 340 kts 216°
2026-05-06 15:46 -30.62954 151.91515 24178 ft 340 kts 216°
2026-05-06 15:47 -30.65002 151.90166 24178 ft 340 kts 216°
2026-05-06 15:47 -30.67064 151.88806 24179 ft 340 kts 216°
2026-05-06 15:47 -30.69158 151.87425 24176 ft 340 kts 216°
2026-05-06 15:47 -30.71288 151.86020 24178 ft 340 kts 216°
2026-05-06 15:48 -30.73355 151.84656 24174 ft 341 kts 216°
2026-05-06 15:48 -30.75437 151.83279 24175 ft 341 kts 216°
2026-05-06 15:48 -30.77497 151.81918 24178 ft 341 kts 216°
2026-05-06 15:48 -30.79569 151.80550 24174 ft 341 kts 216°
2026-05-06 15:49 -30.81634 151.79182 24172 ft 341 kts 216°
2026-05-06 15:49 -30.83689 151.77823 24169 ft 341 kts 216°
2026-05-06 15:49 -30.85739 151.76466 24170 ft 341 kts 216°
2026-05-06 15:49 -30.87810 151.75095 24174 ft 340 kts 216°
2026-05-06 15:50 -30.89881 151.73721 24173 ft 340 kts 216°
2026-05-06 15:50 -30.91947 151.72351 24175 ft 340 kts 216°
2026-05-06 15:50 -30.94009 151.70984 24172 ft 340 kts 216°
2026-05-06 15:50 -30.96094 151.69600 24173 ft 340 kts 216°
2026-05-06 15:51 -30.98153 151.68231 24174 ft 340 kts 216°
2026-05-06 15:51 -31.00203 151.66870 24170 ft 340 kts 216°
2026-05-06 15:51 -31.02266 151.65498 24168 ft 340 kts 216°
2026-05-06 15:51 -31.04342 151.64117 24178 ft 340 kts 216°
2026-05-06 15:52 -31.06399 151.62749 24175 ft 340 kts 216°
2026-05-06 15:52 -31.08445 151.61386 24172 ft 341 kts 216°
2026-05-06 15:52 -31.10539 151.59992 24164 ft 341 kts 216°
2026-05-06 15:52 -31.12611 151.58611 24169 ft 341 kts 216°
2026-05-06 15:53 -31.14757 151.57179 24175 ft 340 kts 216°
2026-05-06 15:53 -31.16795 151.55820 24172 ft 341 kts 216°
2026-05-06 15:53 -31.18852 151.54446 24171 ft 341 kts 216°
2026-05-06 15:53 -31.20939 151.53053 24178 ft 341 kts 216°
2026-05-06 15:54 -31.23003 151.51674 24176 ft 341 kts 216°
2026-05-06 15:54 -31.25058 151.50299 24178 ft 341 kts 216°
2026-05-06 15:54 -31.27145 151.48904 24173 ft 341 kts 216°
2026-05-06 15:54 -31.29184 151.47540 24174 ft 342 kts 216°
2026-05-06 15:55 -31.31259 151.46150 24177 ft 342 kts 216°
2026-05-06 15:55 -31.33337 151.44759 24174 ft 342 kts 215°
2026-05-06 15:55 -31.35393 151.43379 24174 ft 342 kts 216°
2026-05-06 15:55 -31.37487 151.41977 24174 ft 342 kts 216°
2026-05-06 15:56 -31.39641 151.40718 24173 ft 346 kts 208°
2026-05-06 15:56 -31.41884 151.39703 24174 ft 348 kts 206°
2026-05-06 15:56 -31.44161 151.38699 24175 ft 348 kts 206°
2026-05-06 15:56 -31.46439 151.37694 24176 ft 348 kts 206°
2026-05-06 15:57 -31.48715 151.36685 24173 ft 349 kts 206°
2026-05-06 15:57 -31.51008 151.35667 24176 ft 349 kts 206°
2026-05-06 15:57 -31.53307 151.34644 24178 ft 349 kts 207°
2026-05-06 15:57 -31.55627 151.33609 24174 ft 350 kts 207°
2026-05-06 15:58 -31.57968 151.32565 24170 ft 350 kts 206°
2026-05-06 15:58 -31.60302 151.31522 24172 ft 351 kts 207°
2026-05-06 15:58 -31.62640 151.30475 24169 ft 351 kts 206°
2026-05-06 15:58 -31.64980 151.29428 24167 ft 351 kts 206°
2026-05-06 15:59 -31.67293 151.28391 24164 ft 352 kts 206°
2026-05-06 15:59 -31.69585 151.27364 24164 ft 352 kts 206°
2026-05-06 15:59 -31.71888 151.26329 24164 ft 352 kts 206°
2026-05-06 15:59 -31.74179 151.25301 24161 ft 352 kts 206°
2026-05-06 16:00 -31.76469 151.24272 24161 ft 353 kts 206°
2026-05-06 16:00 -31.78763 151.23241 24162 ft 353 kts 206°
2026-05-06 16:00 -31.81059 151.22208 24161 ft 353 kts 206°
2026-05-06 16:00 -31.83361 151.21172 24162 ft 353 kts 206°
2026-05-06 16:01 -31.85675 151.20129 24160 ft 354 kts 206°
2026-05-06 16:01 -31.87965 151.19096 24160 ft 354 kts 206°
2026-05-06 16:01 -31.90256 151.18063 24160 ft 354 kts 206°
2026-05-06 16:01 -31.92567 151.17021 24158 ft 354 kts 206°
2026-05-06 16:02 -31.94909 151.15965 24158 ft 354 kts 206°
2026-05-06 16:02 -31.97254 151.14912 24158 ft 354 kts 206°
2026-05-06 16:02 -31.99595 151.13866 24157 ft 354 kts 206°
2026-05-06 16:02 -32.01928 151.12820 24157 ft 355 kts 206°
2026-05-06 16:03 -32.04287 151.11763 24156 ft 355 kts 206°
2026-05-06 16:03 -32.06595 151.10727 24161 ft 355 kts 206°
2026-05-06 16:03 -32.08914 151.09686 24164 ft 355 kts 206°
2026-05-06 16:03 -32.11285 151.08621 24163 ft 355 kts 206°
2026-05-06 16:04 -32.13578 151.07591 24161 ft 355 kts 206°
2026-05-06 16:04 -32.15918 151.06540 24164 ft 354 kts 205°
2026-05-06 16:04 -32.18268 151.05482 24164 ft 354 kts 205°
2026-05-06 16:04 -32.20585 151.04439 24160 ft 354 kts 205°
2026-05-06 16:05 -32.22937 151.03380 24160 ft 354 kts 205°
2026-05-06 16:05 -32.25246 151.02339 24162 ft 355 kts 205°
2026-05-06 16:05 -32.27584 151.01285 24163 ft 355 kts 205°
2026-05-06 16:05 -32.29956 151.00214 24163 ft 355 kts 205°
2026-05-06 16:06 -32.32269 150.99170 24162 ft 355 kts 205°
2026-05-06 16:06 -32.34587 150.98123 24163 ft 355 kts 205°
2026-05-06 16:06 -32.36905 150.97075 24163 ft 355 kts 205°
2026-05-06 16:06 -32.39210 150.96033 24160 ft 355 kts 205°
2026-05-06 16:07 -32.41525 150.94986 24161 ft 355 kts 205°
2026-05-06 16:07 -32.43842 150.93936 24165 ft 355 kts 205°
2026-05-06 16:07 -32.46191 150.92873 24167 ft 355 kts 205°
2026-05-06 16:07 -32.48497 150.91846 24165 ft 356 kts 203°
2026-05-06 16:08 -32.50961 150.91428 24165 ft 364 kts 181°
2026-05-06 16:08 -32.53509 150.91803 24162 ft 366 kts 175°
2026-05-06 16:08 -32.56031 150.92256 24168 ft 367 kts 174°
2026-05-06 16:08 -32.58555 150.92714 24170 ft 367 kts 174°
2026-05-06 16:09 -32.61092 150.93173 24168 ft 367 kts 175°
2026-05-06 16:09 -32.63611 150.93626 24170 ft 367 kts 174°
2026-05-06 16:09 -32.66147 150.94081 24172 ft 367 kts 174°
2026-05-06 16:09 -32.68671 150.94533 24170 ft 367 kts 174°
2026-05-06 16:10 -32.71278 150.94998 24170 ft 367 kts 174°
2026-05-06 16:10 -32.73913 150.95468 24170 ft 367 kts 174°
2026-05-06 16:10 -32.76550 150.95938 24170 ft 367 kts 175°
2026-05-06 16:10 -32.79193 150.96410 24174 ft 367 kts 174°
2026-05-06 16:11 -32.81715 150.96858 24173 ft 367 kts 174°
2026-05-06 16:11 -32.84233 150.97307 24173 ft 367 kts 175°
2026-05-06 16:11 -32.86758 150.97757 24177 ft 367 kts 174°
2026-05-06 16:11 -32.89319 150.98213 24178 ft 367 kts 174°
2026-05-06 16:12 -32.91829 150.98660 24175 ft 366 kts 174°
2026-05-06 16:12 -32.94357 150.99112 24178 ft 366 kts 175°
2026-05-06 16:12 -32.96877 150.99561 24177 ft 366 kts 174°
2026-05-06 16:12 -32.99419 151.00015 24152 ft 366 kts 174°
2026-05-06 16:13 -33.01913 151.00461 24111 ft 367 kts 174°
2026-05-06 16:13 -33.04463 151.00914 23856 ft 369 kts 174°
2026-05-06 16:13 -33.06995 151.01370 23573 ft 364 kts 174°
2026-05-06 16:13 -33.09490 151.01820 23296 ft 360 kts 174°
2026-05-06 16:14 -33.11989 151.02271 23011 ft 356 kts 174°
2026-05-06 16:14 -33.14434 151.02710 22727 ft 353 kts 174°
2026-05-06 16:14 -33.16850 151.03145 22323 ft 355 kts 174°
2026-05-06 16:14 -33.19324 151.03586 21899 ft 355 kts 174°
2026-05-06 16:15 -33.21769 151.04024 21455 ft 355 kts 174°
2026-05-06 16:15 -33.24169 151.04462 20700 ft 352 kts 174°
2026-05-06 16:15 -33.26553 151.04915 20107 ft 341 kts 173°
2026-05-06 16:15 -33.28914 151.05373 19104 ft 344 kts 173°
2026-05-06 16:16 -33.31221 151.05821 18410 ft 340 kts 173°
2026-05-06 16:16 -33.33528 151.06267 17820 ft 329 kts 173°
2026-05-06 16:16 -33.35806 151.06706 16918 ft 330 kts 173°
2026-05-06 16:16 -33.38050 151.07138 16122 ft 330 kts 172°
2026-05-06 16:17 -33.40310 151.07571 15124 ft 334 kts 172°
2026-05-06 16:17 -33.42593 151.08009 14354 ft 330 kts 172°
2026-05-06 16:17 -33.44850 151.08444 13607 ft 325 kts 172°
2026-05-06 16:17 -33.47075 151.08872 12868 ft 321 kts 172°
2026-05-06 16:18 -33.49246 151.09291 12139 ft 318 kts 172°
2026-05-06 16:18 -33.51432 151.09711 11396 ft 314 kts 172°
2026-05-06 16:18 -33.53574 151.10124 10662 ft 311 kts 172°
2026-05-06 16:18 -33.55712 151.10536 9917 ft 308 kts 171°
2026-05-06 16:19 -33.57784 151.10934 9485 ft 293 kts 171°
2026-05-06 16:19 -33.59744 151.11314 8999 ft 286 kts 171°
2026-05-06 16:19 -33.61698 151.11691 8514 ft 279 kts 171°
2026-05-06 16:19 -33.63604 151.12065 7918 ft 277 kts 171°
2026-05-06 16:20 -33.65504 151.12442 7303 ft 275 kts 170°
2026-05-06 16:20 -33.67370 151.12811 6718 ft 274 kts 170°
2026-05-06 16:20 -33.69239 151.13179 6312 ft 265 kts 170°
2026-05-06 16:20 -33.71009 151.13528 6195 ft 251 kts 170°
2026-05-06 16:21 -33.72753 151.13858 6165 ft 253 kts 170°
2026-05-06 16:21 -33.74481 151.14191 6149 ft 246 kts 170°
2026-05-06 16:21 -33.76150 151.14511 6156 ft 244 kts 170°
2026-05-06 16:21 -33.77857 151.14836 6157 ft 247 kts 170°
2026-05-06 16:22 -33.79565 151.15164 6159 ft 249 kts 170°
2026-05-06 16:22 -33.81286 151.15375 6141 ft 251 kts 182°
2026-05-06 16:22 -33.83013 151.14995 6154 ft 252 kts 193°
2026-05-06 16:22 -33.84741 151.14482 6161 ft 253 kts 194°
2026-05-06 16:23 -33.86457 151.13974 6160 ft 247 kts 194°
2026-05-06 16:23 -33.88098 151.13490 6152 ft 242 kts 194°
2026-05-06 16:23 -33.89728 151.13013 6150 ft 237 kts 194°
2026-05-06 16:23 -33.91314 151.12549 6150 ft 233 kts 194°
2026-05-06 16:24 -33.92897 151.12089 6152 ft 231 kts 194°
2026-05-06 16:24 -33.94424 151.11649 6135 ft 214 kts 193°
2026-05-06 16:24 -33.95856 151.11240 5801 ft 217 kts 193°
2026-05-06 16:24 -33.97351 151.10811 5202 ft 222 kts 193°
2026-05-06 16:25 -33.98854 151.10378 4747 ft 222 kts 192°
2026-05-06 16:25 -34.00350 151.10494 4143 ft 222 kts 150°
2026-05-06 16:25 -34.01221 151.11958 3326 ft 228 kts 99°
2026-05-06 16:25 -34.01092 151.13774 2824 ft 206 kts 76°
2026-05-06 16:26 -34.00701 151.15361 2354 ft 195 kts 70°
2026-05-06 16:26 -34.00104 151.16782 1839 ft 191 kts 48°
2026-05-06 16:26 -33.99080 151.17767 1266 ft 190 kts 29°
2026-05-06 16:26 -33.97888 151.18213 901 ft 175 kts
2026-05-06 16:27 -33.96671 151.18164 207 ft 174 kts 355°
2026-05-06 16:27 -33.95567 151.17848 30 ft 147 kts 347°
2026-05-06 16:27 -33.94791 151.17635 30 ft 82 kts 347°
2026-05-06 16:27 -33.94445 151.17471 30 ft 36 kts 326°
2026-05-06 16:28 -33.94321 151.17352 30 ft 18 kts 322°
2026-05-06 16:28 -33.94209 151.17285 30 ft 18 kts 348°
2026-05-06 16:28 -33.94093 151.17255 30 ft 14 kts 348°
2026-05-06 16:28 -33.94024 151.17238 30 ft 4 kts 349°
2026-05-06 16:29 -33.93981 151.17239 30 ft 9 kts 31°
2026-05-06 16:29 -33.93955 151.17296 30 ft 0 kts 76°
2026-05-06 16:29 -33.93942 151.17357 30 ft 19 kts 76°
2026-05-06 16:30 -33.93896 151.17541 30 ft 22 kts 73°
2026-05-06 16:30 -33.93868 151.17656 30 ft 20 kts 75°
2026-05-06 16:30 -33.93756 151.17778 30 ft 15 kts 14°
2026-05-06 16:30 -33.93661 151.17806 30 ft 12 kts 12°
2026-05-06 16:31 -33.93607 151.17763 30 ft 5 kts 300°
2026-05-06 16:31 -33.93602 151.17754 30 ft 0 kts 303°